Date String (YYYY-MM-DD hh:mm:ss) UTC,Instrument flags,absolute air pressure of the measurement (hPa),sample flow rate (lpm),inlet stack bypass flow (lpm),air temperature of the measurement (°C),ambient temperature measured by the external sensor (°C),aerosol sample conditioner tube jacket temperature (°C),OPC LED temperature (°C),internal box temperature (°C),relative humidity of the measurement (%),span deviation,mass concentration of particles derived from Lorenz-Mie calculation of OPC scattering (μg/m³),mass concentration of particles derived from Lorenz-Mie calculation of OPC scattering (μg/m³),mass concentration of particles derived from Lorenz-Mie calculation of OPC scattering (μg/m³)
DateTimeUTC,F1_M11,P_M11,Q1_M11,Q2_M11,T1_M11,T2_M11,T3_M11,T4_M11,T5_M11,U1_M11,ZSPAN_M11,X0_M11,X2_M11,X1_M11
2023-11-28 01:00:00,SystemResetWarning,0833.3,5.00,000.00,022.9,021.8,000.0,031.4,024.1,9.3,0000.0,0010.12,0004.67,0003.88
2023-11-28 01:01:00,SystemResetWarning,0833.4,5.00,000.00,022.9,021.8,000.0,031.4,024.1,9.3,0000.0,0010.16,0004.71,0003.89
2023-11-28 01:02:00,SystemResetWarning,0833.4,5.00,000.00,022.9,021.8,000.0,031.3,024.1,9.3,0000.0,0010.04,0004.72,0003.91
2023-11-28 01:03:00,SystemResetWarning,0833.4,5.00,000.00,022.9,021.7,000.0,031.3,024.0,9.4,0000.0,0010.18,0004.78,0003.93
2023-11-28 01:04:00,SystemResetWarning,0833.4,5.00,000.00,022.8,021.7,000.0,031.3,024.0,9.3,0000.0,0010.42,0004.81,0003.93
2023-11-28 01:05:00,SystemResetWarning,0833.4,5.00,000.00,022.8,021.7,000.0,031.3,023.9,9.3,0000.0,0010.41,0004.80,0003.92
2023-11-28 01:06:00,SystemResetWarning,0833.4,5.00,000.00,022.8,021.7,000.0,031.3,023.9,9.3,0000.0,0010.49,0004.79,0003.90
2023-11-28 01:07:00,SystemResetWarning,0833.4,5.01,000.00,022.8,021.7,000.0,031.3,023.9,9.4,0000.0,0010.49,0004.80,0003.90
2023-11-28 01:08:00,SystemResetWarning,0833.4,5.01,000.00,022.7,021.7,000.0,031.2,023.9,9.4,0000.0,0010.41,0004.78,0003.92
2023-11-28 01:09:00,SystemResetWarning,0833.4,5.00,000.00,022.7,021.6,000.0,031.2,023.8,9.4,0000.0,0010.62,0004.75,0003.92
2023-11-28 01:10:00,SystemResetWarning,0833.4,5.00,000.00,022.7,021.6,000.0,031.2,023.8,9.5,0000.0,0010.44,0004.72,0003.93
2023-11-28 01:11:00,SystemResetWarning,0833.4,5.00,000.00,022.7,021.6,000.0,031.2,023.9,9.5,0000.0,0010.44,0004.71,0003.95
2023-11-28 01:12:00,SystemResetWarning,0833.5,5.00,000.00,022.7,021.6,000.0,031.2,023.8,9.5,0000.0,0010.60,0004.67,0003.95
2023-11-28 01:13:00,SystemResetWarning,0833.4,4.99,000.00,022.6,021.6,000.0,031.2,023.8,9.5,0000.0,0010.89,0004.65,0003.96
2023-11-28 01:14:00,SystemResetWarning,0833.4,4.99,000.00,022.6,021.6,000.0,031.1,023.8,9.5,0000.0,0010.74,0004.63,0003.97
2023-11-28 01:15:00,SystemResetWarning,0833.4,5.00,000.00,022.6,021.5,000.0,031.1,023.8,9.6,0000.0,0010.58,0004.68,0004.00
2023-11-28 01:16:00,SystemResetWarning,0833.4,5.00,000.00,022.6,021.5,000.0,031.1,023.8,9.6,0000.0,0010.71,0004.72,0004.04
2023-11-28 01:17:00,SystemResetWarning,0833.4,4.99,000.00,022.6,021.5,000.0,031.1,023.8,9.6,0000.0,0011.44,0004.80,0004.09
2023-11-28 01:18:00,SystemResetWarning,0833.4,5.00,000.00,022.6,021.5,000.0,031.1,023.7,9.6,0000.0,0011.72,0004.86,0004.13
2023-11-28 01:19:00,SystemResetWarning,0833.5,5.00,000.00,022.6,021.5,000.0,031.0,023.8,9.6,0000.0,0012.15,0004.88,0004.13
2023-11-28 01:20:00,SystemResetWarning,0833.5,5.00,000.00,022.5,021.4,000.0,031.0,023.7,9.6,0000.0,0011.72,0004.90,0004.16
2023-11-28 01:21:00,SystemResetWarning,0833.4,5.00,000.00,022.5,021.4,000.0,031.0,023.7,9.6,0000.0,0012.04,0004.98,0004.17
2023-11-28 01:22:00,SystemResetWarning,0833.5,5.00,000.00,022.5,021.4,000.0,031.0,023.7,9.7,0000.0,0012.58,0005.00,0004.17
2023-11-28 01:23:00,SystemResetWarning,0833.5,5.00,000.00,022.5,021.4,000.0,031.0,023.7,9.7,0000.0,0012.52,0005.04,0004.17
2023-11-28 01:24:00,SystemResetWarning,0833.5,5.00,000.00,022.5,021.4,000.0,031.0,023.7,9.7,0000.0,0012.56,0005.06,0004.18
2023-11-28 01:25:00,SystemResetWarning,0833.5,5.00,000.00,022.4,021.4,000.0,030.9,023.7,9.6,0000.0,0012.66,0005.04,0004.16
2023-11-28 01:26:00,SystemResetWarning,0833.5,5.00,000.00,022.4,021.3,000.0,030.9,023.6,9.7,0000.0,0012.43,0004.98,0004.15
2023-11-28 01:27:00,SystemResetWarning,0833.5,5.01,000.00,022.4,021.3,000.0,030.9,023.6,9.7,0000.0,0012.24,0004.95,0004.12
2023-11-28 01:28:00,SystemResetWarning,0833.5,5.00,000.00,022.4,021.3,000.0,030.9,023.6,9.7,0000.0,0011.59,0004.88,0004.09
2023-11-28 01:29:00,SystemResetWarning,0833.6,5.00,000.00,022.4,021.3,000.0,030.9,023.5,9.7,0000.0,0011.89,0004.80,0004.07
2023-11-28 01:30:00,SystemResetWarning,0833.6,5.00,000.00,022.4,021.3,000.0,030.9,023.5,9.7,0000.0,0012.33,0004.81,0004.08
2023-11-28 01:31:00,SystemResetWarning,0833.6,5.00,000.00,022.3,021.3,000.0,030.9,023.5,9.7,0000.0,0012.79,0004.84,0004.08
2023-11-28 01:32:00,SystemResetWarning,0833.6,4.99,000.00,022.3,021.2,000.0,030.8,023.5,9.7,0000.0,0012.44,0004.83,0004.09
2023-11-28 01:33:00,SystemResetWarning,0833.6,4.99,000.00,022.3,021.2,000.0,030.8,023.4,9.7,0000.0,0011.92,0004.85,0004.10
2023-11-28 01:34:00,SystemResetWarning,0833.6,4.99,000.00,022.3,021.2,000.0,030.8,023.4,9.7,0000.0,0011.82,0004.87,0004.11
2023-11-28 01:35:00,SystemResetWarning,0833.6,5.00,000.00,022.2,021.1,000.0,030.8,023.4,9.7,0000.0,0011.58,0004.88,0004.13
2023-11-28 01:36:00,SystemResetWarning,0833.6,5.01,000.00,022.2,021.1,000.0,030.8,023.4,9.7,0000.0,0011.77,0004.94,0004.15
2023-11-28 01:37:00,SystemResetWarning,0833.7,5.00,000.00,022.2,021.1,000.0,030.7,023.3,9.7,0000.0,0012.15,0004.97,0004.16
2023-11-28 01:38:00,SystemResetWarning,0833.7,5.01,000.00,022.2,021.0,000.0,030.7,023.3,9.7,0000.0,0012.84,0004.96,0004.19
2023-11-28 01:39:00,SystemResetWarning,0833.7,5.00,000.00,022.1,021.0,000.0,030.7,023.3,9.7,0000.0,0013.39,0004.96,0004.21
2023-11-28 01:40:00,SystemResetWarning,0833.7,4.99,000.00,022.1,021.0,000.0,030.7,023.2,9.7,0000.0,0013.00,0004.99,0004.22
2023-11-28 01:41:00,SystemResetWarning,0833.7,4.99,000.00,022.1,021.0,000.0,030.7,023.2,9.8,0000.0,0012.33,0005.00,0004.23
2023-11-28 01:42:00,SystemResetWarning,0833.7,5.00,000.00,022.1,021.0,000.0,030.7,023.2,9.8,0000.0,0011.81,0004.99,0004.24
2023-11-28 01:43:00,SystemResetWarning,0833.7,5.01,000.00,022.0,020.9,000.0,030.6,023.1,9.8,0000.0,0011.97,0005.00,0004.24
2023-11-28 01:44:00,SystemResetWarning,0833.7,5.00,000.00,022.0,020.9,000.0,030.6,023.1,9.8,0000.0,0012.31,0004.99,0004.24
2023-11-28 01:45:00,SystemResetWarning,0833.7,5.00,000.00,022.0,020.9,000.0,030.6,023.1,9.8,0000.0,0012.78,0004.98,0004.24
2023-11-28 01:46:00,SystemResetWarning,0833.7,5.00,000.00,022.0,020.9,000.0,030.6,023.1,9.9,0000.0,0013.09,0004.98,0004.24
2023-11-28 01:47:00,SystemResetWarning,0833.7,4.99,000.00,021.9,020.9,000.0,030.5,023.0,9.9,0000.0,0012.73,0004.94,0004.24
2023-11-28 01:48:00,SystemResetWarning,0833.7,5.01,000.00,021.9,020.9,000.0,030.5,023.1,9.9,0000.0,0012.28,0004.92,0004.23
2023-11-28 01:49:00,SystemResetWarning,0833.7,5.00,000.00,021.9,020.8,000.0,030.5,023.1,9.9,0000.0,0011.54,0004.92,0004.21
2023-11-28 01:50:00,SystemResetWarning,0833.7,5.00,000.00,021.9,020.8,000.0,030.5,023.1,9.9,0000.0,0011.00,0004.93,0004.21
2023-11-28 01:51:00,SystemResetWarning,0833.6,5.00,000.00,021.9,020.7,000.0,030.4,023.1,9.9,0000.0,0011.22,0004.91,0004.20
2023-11-28 01:52:00,SystemResetWarning,0833.6,4.99,000.00,021.9,020.7,000.0,030.4,023.0,9.9,0000.0,0011.76,0004.91,0004.20
2023-11-28 01:53:00,SystemResetWarning,0833.7,5.00,000.00,021.8,020.7,000.0,030.4,023.0,9.9,0000.0,0012.18,0004.90,0004.20
2023-11-28 01:54:00,SystemResetWarning,0833.7,5.00,000.00,021.8,020.7,000.0,030.4,023.0,9.9,0000.0,0011.88,0004.87,0004.21
2023-11-28 01:55:00,SystemResetWarning,0833.7,5.00,000.00,021.8,020.7,000.0,030.4,022.9,9.9,0000.0,0011.23,0004.85,0004.22
2023-11-28 01:56:00,SystemResetWarning,0833.6,5.00,000.00,021.8,020.7,000.0,030.3,022.9,10.0,0000.0,0010.85,0004.87,0004.22
2023-11-28 01:57:00,SystemResetWarning,0833.6,5.00,000.00,021.7,020.7,000.0,030.3,022.9,10.0,0000.0,0010.46,0004.86,0004.23
2023-11-28 01:58:00,SystemResetWarning,0833.6,5.00,000.00,021.7,020.6,000.0,030.3,022.8,10.0,0000.0,0010.67,0004.88,0004.23
2023-11-28 01:59:00,SystemResetWarning,0833.6,5.00,000.00,021.7,020.6,000.0,030.3,022.8,10.0,0000.0,0011.41,0004.95,0004.24
